Location: Little Elm
(33.1626°N, 96.9375°W)
Time: 20:24:04
(UTC+00:00)

Envisat - Pass Details

Date: 22 May 2022
Orbit: 764 x 765 km, 98.2° (Epoch: 25 June)

Event Time Altitude Azimuth Distance (km) Brightness Sun altitude
Rises 10:40:55 0° 17° (NNE) 3,234 7.1 -8.7°
Reaches altitude 10° 10:43:16 10° 22° (NNE) 2,304 6.4 -8.3°
Maximum altitude 10:48:15 56° 100° (E) 909 3.7 -7.4°
Drops below altitude 10° 10:53:12 10° 178° (S) 2,289 5.2 -6.5°
Sets 10:55:32 0° 183° (S) 3,211 5.9 -6.1°
